THY4JN LATI-LTFM

Flight info

Callsign THY4JN
Flight time 1h 19m
Altitude 37000
Route ODRAS DCT MAVAR DCT VELBA DCT AYTEK
Aircraft B738/M-SDE2E3FGHIRWXY/LB1

Departure

Time 2026-05-01 13:30
Airport Tirana International Airport Mother Teresa (LATI)

Arrival

Time 2026-05-01 14:49
Airport İstanbul Airport (LTFM)
Time Latitude Longitude Altitude Speed Heading
2026-05-01 13:07 41.41988 19.71509 118 ft 0 kts 264°
2026-05-01 13:21 41.41988 19.71517 122 ft 4 kts 262°
2026-05-01 13:21 41.41996 19.71550 122 ft 4 kts 234°
2026-05-01 13:22 41.42014 19.71570 120 ft 4 kts 186°
2026-05-01 13:22 41.42023 19.71571 121 ft 0 kts 174°
2026-05-01 13:25 41.42016 19.71571 126 ft 3 kts 176°
2026-05-01 13:25 41.41981 19.71575 120 ft 7 kts 175°
2026-05-01 13:26 41.41914 19.71583 121 ft 12 kts 174°
2026-05-01 13:26 41.41822 19.71594 121 ft 14 kts 173°
2026-05-01 13:26 41.41718 19.71611 123 ft 16 kts 173°
2026-05-01 13:26 41.41608 19.71627 123 ft 17 kts 172°
2026-05-01 13:27 41.41490 19.71643 122 ft 17 kts 175°
2026-05-01 13:27 41.41374 19.71658 123 ft 17 kts 175°
2026-05-01 13:27 41.41118 19.71691 129 ft 20 kts 175°
2026-05-01 13:28 41.40822 19.71745 128 ft 23 kts 170°
2026-05-01 13:28 41.40667 19.71770 127 ft 17 kts 162°
2026-05-01 13:29 41.40671 19.72053 132 ft 16 kts 76°
2026-05-01 13:29 41.40723 19.72158 133 ft 6 kts 355°
2026-05-01 13:30 41.43521 19.71784 1134 ft 159 kts 355°
2026-05-01 13:31 41.45712 19.71403 2813 ft 162 kts 355°
2026-05-01 13:31 41.49853 19.70905 3743 ft 234 kts 356°
2026-05-01 13:32 41.53359 19.70472 4568 ft 265 kts 355°
2026-05-01 13:33 41.58865 19.69749 7184 ft 270 kts 356°
2026-05-01 13:33 41.62406 19.68140 8858 ft 282 kts 316°
2026-05-01 13:34 41.63703 19.63236 10496 ft 300 kts 265°
2026-05-01 13:34 41.61622 19.58007 11119 ft 347 kts 220°
2026-05-01 13:35 41.57093 19.56150 12645 ft 353 kts 169°
2026-05-01 13:35 41.54866 19.57366 13497 ft 354 kts 143°
2026-05-01 13:35 41.51200 19.61879 15026 ft 365 kts 137°
2026-05-01 13:36 41.49247 19.64081 15812 ft 370 kts 141°
2026-05-01 13:36 41.47207 19.66202 16580 ft 375 kts 142°
2026-05-01 13:36 41.43740 19.71354 18018 ft 383 kts 110°
2026-05-01 13:37 41.43234 19.74825 18738 ft 385 kts 90°
2026-05-01 13:37 41.43607 19.78352 19411 ft 387 kts 70°
2026-05-01 13:37 41.44614 19.81635 20076 ft 390 kts 65°
2026-05-01 13:37 41.45728 19.84955 20717 ft 395 kts 65°
2026-05-01 13:38 41.47936 19.91758 21952 ft 404 kts 66°
2026-05-01 13:38 41.49029 19.95223 22544 ft 408 kts 66°
2026-05-01 13:38 41.50130 19.98726 23122 ft 412 kts 66°
2026-05-01 13:39 41.51243 20.02267 23669 ft 416 kts 66°
2026-05-01 13:39 41.52362 20.05840 24180 ft 420 kts 66°
2026-05-01 13:39 41.53474 20.09409 24669 ft 424 kts 66°
2026-05-01 13:39 41.54616 20.13059 25171 ft 427 kts 66°
2026-05-01 13:40 41.55779 20.16723 25658 ft 431 kts 65°
2026-05-01 13:40 41.56950 20.20425 26136 ft 434 kts 66°
2026-05-01 13:40 41.58115 20.24165 26579 ft 438 kts 66°
2026-05-01 13:40 41.59283 20.27940 27006 ft 442 kts 66°
2026-05-01 13:41 41.60456 20.31746 27439 ft 445 kts 66°
2026-05-01 13:41 41.61624 20.35534 27828 ft 448 kts 66°
2026-05-01 13:41 41.62814 20.39391 28233 ft 451 kts 66°
2026-05-01 13:41 41.64013 20.43281 28619 ft 454 kts 66°
2026-05-01 13:42 41.65221 20.47199 28959 ft 458 kts 66°
2026-05-01 13:42 41.66433 20.51151 29298 ft 461 kts 67°
2026-05-01 13:42 41.67442 20.55241 29633 ft 466 kts 76°
2026-05-01 13:42 41.68074 20.59496 29965 ft 468 kts 79°
2026-05-01 13:43 41.68628 20.63810 30254 ft 472 kts 79°
2026-05-01 13:43 41.69166 20.68160 30515 ft 476 kts 79°
2026-05-01 13:43 41.69713 20.72548 30735 ft 481 kts 79°
2026-05-01 13:43 41.70269 20.76904 31030 ft 483 kts 79°
2026-05-01 13:44 41.70847 20.81333 31405 ft 483 kts 79°
2026-05-01 13:44 41.71432 20.85751 31798 ft 483 kts 78°
2026-05-01 13:44 41.72025 20.90188 32061 ft 485 kts 78°
2026-05-01 13:44 41.72622 20.94645 32293 ft 489 kts 78°
2026-05-01 13:45 41.73221 20.99130 32631 ft 489 kts 78°
2026-05-01 13:45 41.73817 21.03613 33022 ft 489 kts 78°
2026-05-01 13:45 41.74402 21.08037 33358 ft 490 kts 78°
2026-05-01 13:45 41.74995 21.12536 33617 ft 492 kts 78°
2026-05-01 13:46 41.75589 21.17059 33905 ft 494 kts 78°
2026-05-01 13:46 41.76182 21.21588 34250 ft 493 kts 78°
2026-05-01 13:46 41.76772 21.26109 34597 ft 493 kts 78°
2026-05-01 13:46 41.77362 21.30640 34955 ft 493 kts 78°
2026-05-01 13:47 41.77948 21.35160 35288 ft 493 kts 79°
2026-05-01 13:47 41.78532 21.39679 35655 ft 492 kts 79°
2026-05-01 13:47 41.79105 21.44129 35981 ft 491 kts 79°
2026-05-01 13:47 41.79685 21.48640 36250 ft 492 kts 79°
2026-05-01 13:48 41.80264 21.53162 36490 ft 493 kts 79°
2026-05-01 13:48 41.80842 21.57696 36819 ft 491 kts 79°
2026-05-01 13:48 41.81411 21.62180 37264 ft 487 kts 79°
2026-05-01 13:49 41.82551 21.71185 37239 ft 489 kts 79°
2026-05-01 13:49 41.83667 21.80047 37229 ft 482 kts 79°
2026-05-01 13:50 41.84772 21.88896 37246 ft 481 kts 79°
2026-05-01 13:50 41.85870 21.97730 37242 ft 480 kts 79°
2026-05-01 13:51 41.86958 22.06564 37240 ft 480 kts 79°
2026-05-01 13:51 41.88035 22.15351 37237 ft 480 kts 79°
2026-05-01 13:52 41.89112 22.24197 37240 ft 481 kts 79°
2026-05-01 13:52 41.90183 22.33053 37236 ft 481 kts 79°
2026-05-01 13:53 41.91249 22.41932 37251 ft 482 kts 79°
2026-05-01 13:53 41.92839 22.55288 37252 ft 484 kts 79°
2026-05-01 13:54 41.93893 22.64224 37248 ft 485 kts 79°
2026-05-01 13:54 41.94937 22.73121 37254 ft 486 kts 79°
2026-05-01 13:55 41.95985 22.82109 37258 ft 487 kts 79°
2026-05-01 13:55 41.96735 22.91157 37249 ft 489 kts 90°
2026-05-01 13:56 41.96448 23.00291 37261 ft 489 kts 93°
2026-05-01 13:56 41.96074 23.09361 37269 ft 490 kts 92°
2026-05-01 13:57 41.95789 23.16958 37275 ft 490 kts 92°
2026-05-01 13:57 41.95422 23.27663 37263 ft 491 kts 92°
2026-05-01 13:58 41.95110 23.36813 37275 ft 490 kts 92°
2026-05-01 13:58 41.94793 23.45896 37271 ft 489 kts 92°
2026-05-01 13:59 41.94467 23.55005 37279 ft 488 kts 92°
2026-05-01 13:59 41.94133 23.64099 37279 ft 487 kts 92°
2026-05-01 14:00 41.93796 23.73179 37272 ft 486 kts 92°
2026-05-01 14:00 41.93450 23.82182 37274 ft 485 kts 92°
2026-05-01 14:01 41.93095 23.91217 37275 ft 484 kts 92°
2026-05-01 14:01 41.92734 24.00247 37279 ft 484 kts 93°
2026-05-01 14:02 41.92368 24.09253 37279 ft 483 kts 93°
2026-05-01 14:02 41.91995 24.18254 37273 ft 483 kts 93°
2026-05-01 14:03 41.91618 24.27197 37278 ft 483 kts 93°
2026-05-01 14:03 41.91232 24.36192 37274 ft 483 kts 93°
2026-05-01 14:04 41.90836 24.45193 37289 ft 483 kts 93°
2026-05-01 14:04 41.90503 24.52683 37298 ft 484 kts 93°
2026-05-01 14:05 41.90027 24.63166 37288 ft 485 kts 93°
2026-05-01 14:05 41.89610 24.72210 37280 ft 486 kts 94°
2026-05-01 14:06 41.89185 24.81270 37283 ft 487 kts 94°
2026-05-01 14:06 41.88826 24.88815 37288 ft 489 kts 94°
2026-05-01 14:07 41.88309 24.99469 37292 ft 489 kts 94°
2026-05-01 14:08 41.87634 25.13095 37291 ft 490 kts 94°
2026-05-01 14:08 41.87174 25.22218 37285 ft 491 kts 94°
2026-05-01 14:09 41.86705 25.31351 37274 ft 491 kts 94°
2026-05-01 14:09 41.86310 25.38931 37274 ft 490 kts 94°
2026-05-01 14:10 41.86071 25.44094 37299 ft 489 kts 91°
2026-05-01 14:10 41.86135 25.49436 37268 ft 489 kts 92°
2026-05-01 14:11 41.85559 25.58498 37273 ft 487 kts 97°
2026-05-01 14:11 41.84444 25.73472 37253 ft 484 kts 95°
2026-05-01 14:12 41.84261 25.76518 36768 ft 490 kts 95°
2026-05-01 14:12 41.83921 25.82541 35982 ft 486 kts 95°
2026-05-01 14:12 41.83757 25.85534 35525 ft 487 kts 95°
2026-05-01 14:12 41.83508 25.90050 34868 ft 486 kts 95°
2026-05-01 14:13 41.83255 25.94572 34190 ft 486 kts 95°
2026-05-01 14:13 41.82999 25.99087 33493 ft 485 kts 95°
2026-05-01 14:13 41.82740 26.03584 32905 ft 482 kts 95°
2026-05-01 14:13 41.82398 26.09465 32243 ft 474 kts 95°
2026-05-01 14:14 41.82140 26.13847 31749 ft 469 kts 95°
2026-05-01 14:14 41.81966 26.16780 31425 ft 466 kts 95°
2026-05-01 14:14 41.81710 26.21079 30937 ft 460 kts 95°
2026-05-01 14:14 41.81460 26.25277 30467 ft 456 kts 95°
2026-05-01 14:15 41.81207 26.29490 29993 ft 450 kts 95°
2026-05-01 14:15 41.80956 26.33646 29511 ft 445 kts 95°
2026-05-01 14:15 41.80523 26.37724 29043 ft 439 kts 107°
2026-05-01 14:15 41.79514 26.41537 28717 ft 430 kts 113°
2026-05-01 14:16 41.78396 26.45284 28362 ft 437 kts 113°
2026-05-01 14:16 41.77280 26.49097 27986 ft 442 kts 112°
2026-05-01 14:16 41.76200 26.52954 27602 ft 441 kts 112°
2026-05-01 14:16 41.75154 26.56730 27229 ft 436 kts 114°
2026-05-01 14:17 41.73754 26.60286 26854 ft 430 kts 126°
2026-05-01 14:17 41.72067 26.63565 26502 ft 425 kts 128°
2026-05-01 14:17 41.70365 26.66787 26133 ft 423 kts 128°
2026-05-01 14:17 41.68698 26.70028 25771 ft 421 kts 127°
2026-05-01 14:18 41.67072 26.73273 25415 ft 419 kts 126°
2026-05-01 14:18 41.65458 26.76506 25057 ft 417 kts 128°
2026-05-01 14:18 41.63447 26.79219 24678 ft 407 kts 149°
2026-05-01 14:18 41.60965 26.80901 24364 ft 397 kts 166°
2026-05-01 14:19 41.58332 26.81650 24055 ft 390 kts 175°
2026-05-01 14:19 41.55692 26.82154 23722 ft 388 kts 176°
2026-05-01 14:19 41.53022 26.82680 23391 ft 387 kts 175°
2026-05-01 14:19 41.50364 26.83262 23055 ft 388 kts 171°
2026-05-01 14:20 41.47858 26.84668 22695 ft 398 kts 148°
2026-05-01 14:20 41.44549 26.90443 22063 ft 406 kts 115°
2026-05-01 14:20 41.43453 26.93910 21715 ft 406 kts 114°
2026-05-01 14:21 41.42369 26.97378 21358 ft 404 kts 115°
2026-05-01 14:21 41.41280 27.00765 21017 ft 403 kts 116°
2026-05-01 14:21 41.40159 27.04175 20675 ft 401 kts 116°
2026-05-01 14:22 41.37036 27.10065 19985 ft 385 kts 147°
2026-05-01 14:22 41.34801 27.11944 19690 ft 378 kts 153°
2026-05-01 14:22 41.32532 27.13695 19363 ft 376 kts 154°
2026-05-01 14:22 41.30276 27.15426 19041 ft 374 kts 154°
2026-05-01 14:23 41.28035 27.17164 18722 ft 372 kts 153°
2026-05-01 14:23 41.25810 27.18910 18403 ft 369 kts 153°
2026-05-01 14:23 41.23659 27.20612 18086 ft 362 kts 153°
2026-05-01 14:23 41.21519 27.22306 17783 ft 354 kts 153°
2026-05-01 14:24 41.19425 27.23965 17477 ft 346 kts 153°
2026-05-01 14:24 41.17403 27.25577 17176 ft 331 kts 153°
2026-05-01 14:24 41.15461 27.27128 16908 ft 324 kts 153°
2026-05-01 14:24 41.13543 27.28657 16641 ft 319 kts 153°
2026-05-01 14:25 41.11645 27.30168 16385 ft 319 kts 153°
2026-05-01 14:25 41.09765 27.31662 16117 ft 319 kts 153°
2026-05-01 14:25 41.07864 27.33173 15845 ft 319 kts 153°
2026-05-01 14:25 41.05962 27.34685 15571 ft 319 kts 152°
2026-05-01 14:26 41.04058 27.36197 15297 ft 319 kts 152°
2026-05-01 14:26 41.00258 27.39212 14748 ft 317 kts 152°
2026-05-01 14:26 40.98370 27.40708 14480 ft 316 kts 152°
2026-05-01 14:27 40.96607 27.42436 14197 ft 319 kts 132°
2026-05-01 14:27 40.95470 27.44915 14064 ft 314 kts 115°
2026-05-01 14:27 40.94667 27.47584 13914 ft 311 kts 111°
2026-05-01 14:28 40.93165 27.52928 13619 ft 315 kts 111°
2026-05-01 14:28 40.92379 27.55635 13460 ft 313 kts 112°
2026-05-01 14:28 40.91591 27.58300 13300 ft 311 kts 112°
2026-05-01 14:28 40.90803 27.60948 13152 ft 309 kts 112°
2026-05-01 14:29 40.89949 27.63545 13004 ft 307 kts 115°
2026-05-01 14:29 40.89055 27.66100 12860 ft 306 kts 116°
2026-05-01 14:30 40.86371 27.73741 12220 ft 310 kts 115°
2026-05-01 14:30 40.85479 27.76301 12039 ft 304 kts 115°
2026-05-01 14:30 40.84604 27.78821 11881 ft 300 kts 115°
2026-05-01 14:31 40.82858 27.83839 11592 ft 301 kts 115°
2026-05-01 14:31 40.82052 27.86387 11431 ft 301 kts 104°
2026-05-01 14:31 40.81946 27.89114 11300 ft 297 kts 84°
2026-05-01 14:31 40.82137 27.91835 11157 ft 297 kts 83°
2026-05-01 14:32 40.82343 27.94538 11006 ft 296 kts 83°
2026-05-01 14:32 40.82543 27.97201 10868 ft 295 kts 83°
2026-05-01 14:32 40.82739 27.99889 10720 ft 293 kts 83°
2026-05-01 14:32 40.82928 28.02560 10581 ft 292 kts 83°
2026-05-01 14:33 40.83113 28.05230 10438 ft 291 kts 84°
2026-05-01 14:33 40.83295 28.07887 10293 ft 290 kts 84°
2026-05-01 14:33 40.83476 28.10532 10149 ft 289 kts 84°
2026-05-01 14:33 40.83650 28.13141 10014 ft 280 kts 83°
2026-05-01 14:34 40.83817 28.15653 9827 ft 271 kts 83°
2026-05-01 14:34 40.83980 28.18086 9643 ft 268 kts 83°
2026-05-01 14:34 40.84144 28.20539 9460 ft 267 kts 83°
2026-05-01 14:34 40.84306 28.22976 9276 ft 266 kts 83°
2026-05-01 14:35 40.84467 28.25405 9094 ft 266 kts 83°
2026-05-01 14:35 40.84629 28.27858 8905 ft 269 kts 83°
2026-05-01 14:35 40.84790 28.30309 8710 ft 267 kts 83°
2026-05-01 14:35 40.84950 28.32756 8512 ft 266 kts 83°
2026-05-01 14:36 40.85110 28.35184 8323 ft 265 kts 83°
2026-05-01 14:36 40.85268 28.37602 8129 ft 264 kts 83°
2026-05-01 14:36 40.85423 28.39978 7940 ft 259 kts 83°
2026-05-01 14:36 40.85573 28.42304 7745 ft 249 kts 83°
2026-05-01 14:37 40.85717 28.44544 7551 ft 240 kts 83°
2026-05-01 14:37 40.86041 28.46656 7364 ft 231 kts 63°
2026-05-01 14:37 40.86820 28.48486 7234 ft 228 kts 58°
2026-05-01 14:37 40.87625 28.50304 7073 ft 230 kts 58°
2026-05-01 14:38 40.88433 28.52141 6919 ft 232 kts 58°
2026-05-01 14:38 40.89228 28.53953 6761 ft 223 kts 58°
2026-05-01 14:38 40.89981 28.55687 6596 ft 219 kts 58°
2026-05-01 14:38 40.90737 28.57426 6414 ft 217 kts 58°
2026-05-01 14:39 40.91483 28.59145 6286 ft 214 kts 58°
2026-05-01 14:39 40.92223 28.60853 6153 ft 214 kts 58°
2026-05-01 14:39 40.92962 28.62559 6026 ft 213 kts 58°
2026-05-01 14:39 40.93696 28.64254 5886 ft 213 kts 58°
2026-05-01 14:40 40.94434 28.65962 5729 ft 214 kts 58°
2026-05-01 14:40 40.95170 28.67669 5585 ft 214 kts 58°
2026-05-01 14:40 40.95897 28.69357 5360 ft 212 kts 58°
2026-05-01 14:40 40.96609 28.71013 5200 ft 201 kts 58°
2026-05-01 14:41 40.97326 28.72523 5045 ft 186 kts 45°
2026-05-01 14:41 40.98421 28.73144 5006 ft 168 kts
2026-05-01 14:41 40.99567 28.73196 4999 ft 164 kts
2026-05-01 14:41 41.00699 28.73270 4985 ft 162 kts
2026-05-01 14:42 41.01815 28.73298 5008 ft 162 kts
2026-05-01 14:42 41.02958 28.73297 4836 ft 164 kts
2026-05-01 14:42 41.04080 28.73283 4638 ft 158 kts
2026-05-01 14:42 41.05149 28.73262 4406 ft 148 kts
2026-05-01 14:43 41.06146 28.73240 4211 ft 142 kts
2026-05-01 14:43 41.07108 28.73218 4037 ft 141 kts
2026-05-01 14:43 41.08096 28.73198 3848 ft 142 kts
2026-05-01 14:43 41.09083 28.73175 3652 ft 141 kts
2026-05-01 14:44 41.10056 28.73151 3473 ft 141 kts
2026-05-01 14:44 41.12014 28.73107 3099 ft 141 kts
2026-05-01 14:44 41.12988 28.73083 2918 ft 139 kts
2026-05-01 14:45 41.13958 28.73061 2732 ft 140 kts
2026-05-01 14:45 41.15862 28.73016 2368 ft 136 kts
2026-05-01 14:45 41.16804 28.72995 2166 ft 135 kts
2026-05-01 14:46 41.17747 28.72974 2006 ft 138 kts
2026-05-01 14:46 41.19637 28.72929 1637 ft 134 kts
2026-05-01 14:46 41.20581 28.72909 1464 ft 136 kts
2026-05-01 14:47 41.21526 28.72883 1256 ft 135 kts
2026-05-01 14:47 41.22348 28.72861 1104 ft 133 kts
2026-05-01 14:47 41.23007 28.72838 987 ft 133 kts
2026-05-01 14:48 41.24309 28.72816 719 ft 133 kts
2026-05-01 14:48 41.24947 28.72792 624 ft 135 kts
2026-05-01 14:48 41.26611 28.72768 349 ft 139 kts
2026-05-01 14:49 41.28103 28.72735 329 ft 62 kts 358°
2026-05-01 14:49 41.28433 28.72860 330 ft 15 kts 33°
2026-05-01 14:50 41.28407 28.72953 333 ft 9 kts 180°
2026-05-01 14:50 41.28258 28.72955 333 ft 9 kts 179°
2026-05-01 14:51 41.28196 28.72956 330 ft 9 kts 179°
2026-05-01 14:51 41.28018 28.72962 333 ft 17 kts 178°
2026-05-01 14:52 41.27732 28.72962 330 ft 24 kts 181°
2026-05-01 14:52 41.27557 28.72973 330 ft 26 kts 179°
2026-05-01 14:52 41.27235 28.72980 333 ft 20 kts 180°
2026-05-01 14:53 41.27100 28.72982 333 ft 19 kts 178°
2026-05-01 14:53 41.26969 28.72987 330 ft 19 kts 179°
2026-05-01 14:53 41.26842 28.72989 329 ft 18 kts 179°
2026-05-01 14:53 41.26720 28.72992 331 ft 17 kts 179°
2026-05-01 14:54 41.26608 28.73019 330 ft 17 kts 130°
2026-05-01 14:54 41.26598 28.73165 328 ft 16 kts 89°
2026-05-01 14:54 41.26598 28.73307 329 ft 13 kts 96°
2026-05-01 14:54 41.26539 28.73380 330 ft 12 kts 161°
2026-05-01 14:55 41.26481 28.73413 330 ft 6 kts 126°
2026-05-01 14:55 41.26485 28.73462 331 ft 2 kts 72°
2026-05-01 14:55 41.26488 28.73478 330 ft 2 kts 73°
2026-05-01 14:55 41.26493 28.73497 330 ft 2 kts 71°
2026-05-01 14:56 41.26495 28.73505 333 ft 0 kts 70°